Terminal Aerodrome Forecast
Issued by NWS

Home | Current Version | Previous Version | Text Only | Print | Product List | Glossary On
Versions: 1 2 3 4 5 6 7 8 9 10 11 12
000
FTUS45 KRIW 190500
TAFJAC
TAF
KJAC 190527Z 1906/2006 22007KT P6SM SCT250
     FM191000 VRB04KT P6SM VCFG FEW012 SCT120
     FM191900 20011KT P6SM FEW060 SCT120
     FM200100 VRB05KT P6SM FEW080 SCT250
      AMD LTD TO CLD VIS AND WIND=

USA.gov is the U.S. government's official web portal to all federal, state and local government web resources and services.